Flag for Canada Weather past 2 weeks in Rouyn-Noranda, Quebec, Canada

Now
37 °F

Overcast.


Feels Like: 30 °F
Forecast: N/A
Wind: 10 mph from North

Location: Rouyn Airport

Current Time: Apr 26, 2015 at 5:01:34 PM

Latest Report: Apr 26, 2015 at 4:00 PM


Visibility: 15 mi

Pressure: 29.92 "Hg

Humidity: 87%

Dew point: 34 °F

Location of Rouyn-NorandaLocation

Historic Weather in Rouyn-Noranda — Graph

°F

Rouyn-Noranda temperature yesterday

Maximum temperature yesterday: 41 °F (at 3:00 PM)
Minimum temperature yesterday: 27 °F (at 1:00 AM)
Average temperature yesterday: 33 °F

Past Weeks' High & Low Weather Summary

 TemperatureHumidityPressure
High59 °F (Apr 13, 1:00 PM)100% (Apr 20, 3:50 PM)30.48 "Hg (Apr 20, 3:50 PM)
Low19 °F (Apr 19, 6:00 AM)22% (Apr 19, 4:00 PM)29.30 "Hg (Apr 20, 11:00 PM)
Average38 °F70%29.89 "Hg
* Reported Apr 11 3:00 PM — Apr 26 3:50 PM, Rouyn-Noranda, Weather by CustomWeather, © 2015

Note: Actual official high and low records may vary slightly from our data, if they occured in-between our weather recording intervals... More about our weather records

Advertising

Rouyn-Noranda weather history for previous 24 hours

 ConditionsComfort  
Time TempWeatherWind HumidityBarometerVisibility
3:50 PM
Sun, Apr 26
37 °FOvercast.10 mph87%29.92 "Hg15 mi
3:00 PM36 °FLight rain. Overcast.12 mph93%29.91 "Hg15 mi
2:00 PM37 °FOvercast.15 mph87%29.92 "Hg15 mi
1:00 PM39 °FOvercast.8 mph81%29.90 "Hg15 mi
12:56 PM39 °FOvercast.10 mph81%29.91 "Hg15 mi
12:00 PM37 °FLow clouds.9 mph87%29.91 "Hg10 mi
11:00 AM36 °FLow clouds.8 mph87%29.91 "Hg10 mi
10:58 AM36 °FLow clouds.8 mph87%29.91 "Hg10 mi
10:00 AM34 °FLow clouds.10 mph93%29.92 "Hg8 mi
9:00 AM34 °FFog.9 mph93%29.92 "Hg6 mi
8:00 AM32 °FIce fog.8 mph100%29.90 "Hg6 mi
7:00 AM32 °FIce fog.8 mph100%29.90 "Hg3 mi
6:00 AM32 °FLight snow. Ice fog.8 mph100%29.89 "Hg5 mi
5:00 AM32 °FLight snow. Ice fog.6 mph100%29.89 "Hg6 mi
4:00 AM32 °FLight snow. Ice fog.6 mph100%29.90 "Hg3 mi
3:00 AM34 °FLight snow. Mostly cloudy.8 mph93%29.90 "Hg8 mi
2:00 AM34 °FLight snow. Overcast.6 mph93%29.90 "Hg15 mi
1:00 AM34 °FDrizzle. Mostly cloudy.7 mph93%29.91 "Hg15 mi
12:00 AM36 °FLight rain. Overcast.9 mph87%29.92 "Hg15 mi
11:00 PM
Sat, Apr 25
36 °FLight rain. Overcast.9 mph93%29.93 "Hg15 mi
10:00 PM37 °FLight snow. Overcast.5 mph81%29.93 "Hg15 mi
9:00 PM37 °FMostly cloudy.8 mph81%29.93 "Hg15 mi
8:00 PM39 °FOvercast.10 mph75%29.94 "Hg15 mi
7:00 PM39 °FMostly cloudy.7 mph75%29.93 "Hg15 mi
6:00 PM41 °FMostly cloudy.10 mph66%29.93 "Hg15 mi
5:00 PM41 °FMostly cloudy.10 mph61%29.94 "Hg15 mi
Weather by CustomWeather, © 2015

See weather overviewHow to use our weather pages